Skip Page Navigation
NASA JPL Caltech
NASA Logo - Jet Propulsion Laboratory + View the NASA Portal
+ Near-Earth Object (NEO) Program
Search JPL
JPL Home Earth Solar System Stars & Galaxies Technology
JPL Solar System Dynamics
BODIES ORBITS EPHEMERIDES TOOLS PHYSICAL DATA DISCOVERY FAQ SITE MAP
JPL Small-Body Database Browser
Search: [ help ]  
(2002 AC9)
Classification: Apollo [NEO, PHA]          SPK-ID: 3102752
Ephemeris | Orbit Diagram | Orbital Elements | Physical Parameters | Close-Approach Data ]

[ hide orbit diagram ]
Orbit Diagram
Note: Make sure you have Java enabled on your browser to see the applet. This applet is provided as a 3D orbit visualization tool. The applet was implemented using 2-body methods, and hence should not be used for determining accurate long-term trajectories (over several years or decades) or planetary encounter circumstances. For accurate long-term ephemerides, please instead use our Horizons system.
Orbit Viewer

Additional Notes: the orbits shown in the applet are color coded. The planets are white lines, and the asteroid/comet is a blue line. The bright white line indicates the portion of the orbit that is above the ecliptic plane, and the darker portion is below the ecliptic plane. Likewise for the asteroid/comet orbit, the light blue indicates the portion above the ecliptic plane, and the dark blue the portion below the ecliptic plane.

Orbit Viewer applet originally written and kindly provided by Osamu Ajiki (AstroArts), and further modified by Ron Baalke (JPL).


Orbital Elements at Epoch 2456400.5 (2013-Apr-18.0) TDB
Reference: JPL 6 (heliocentric ecliptic J2000)
 Element Value Uncertainty (1-sigma)   Units 
e .56077275830795 1.8697e-07  
a 1.703592704799526 4.2102e-08 AU
q .7482643246957945 3.3628e-07 AU
i 2.284873814885851 2.8223e-05 deg
node 2.599834563305027 0.0011091 deg
peri 28.42300294305496 0.0011016 deg
M 52.91948953746639 2.3481e-05 deg
tp 2456281.112122884282
(2012-Dec-19.61212288)
4.962e-05 JED
period 812.1702634948743
2.22
3.0108e-05
8.243e-08
d
yr
n .4432568097862549 1.6432e-08 deg/d
Q 2.658921084903257 6.5712e-08 AU
  Orbit Determination Parameters
   # obs. used (total)      51  
   data-arc span      3132 days (8.57 yr)  
   first obs. used      2002-01-09  
   last obs. used      2010-08-07  
   planetary ephem.      DE405  
   SB-pert. ephem.      SB405-CPV-2  
   condition code      0  
   fit RMS      .63138  
   data source      ORB  
   producer      Otto Matic  
   solution date      2011-Sep-14 19:44:18  

Additional Information
 Earth MOID = .0289258 AU 
 T_jup = 4.001 
[ show covariance matrix ]

Ephemeris | Orbit Diagram | Orbital Elements | Physical Parameters | Close-Approach Data ]

Physical Parameter Table
Parameter Symbol Value Units Sigma Reference Notes
absolute magnitude H 20.806 mag .83554 6 autocmod 2.5a

[ show close-approach data ]
Ephemeris | Orbit Diagram | Orbital Elements | Physical Parameters | Close-Approach Data ]
ABOUT SSD CREDITS/AWARDS PRIVACY/COPYRIGHT GLOSSARY LINKS
FirstGov 2013-May-24 21:34 UT
(server date/time)  
NASA Home Page
Site Manager:   Donald K. Yeomans
Webmaster  Alan B. Chamberlin